Weather History for KCRX - July, 2013

Change the Weather History Date:

Thursday, July 25, 2013

  Actual Average (WUND) Record (WUND)
Temperature  
Mean Temperature 73 °F -  
Max Temperature 82 °F - - (-1)
Min Temperature 64 °F - - (-1)
Cooling Degree Days 8    
Growing Degree Days 23 (Base 50)    
Moisture  
Dew Point 63 °F    
Average Humidity 72    
Maximum Humidity 94    
Minimum Humidity 48    
Precipitation  
Precipitation 0.00 in - - ()
Sea Level Pressure  
Sea Level Pressure 30.02 in    
Wind  
Wind Speed 4 mph (NNW)    
Max Wind Speed 8 mph    
Max Gust Speed -    
Visibility 10 miles    
Events      
Averages and records for this station are not official NWS values.
T = Trace of Precipitation, MM = Missing Value Source: NWS Daily Summary

Daily Weather History Graph

Daily Weather History Graph

Search for Another Location

Airport or City:

Trip Planner

Search our weather history database for the weather conditions in past years. The results will help you decide how hot, cold, wet, or windy it might be!

Date:

Astronomy

Jul. 25, 2013 Rise Set
Actual Time 5:59 AM CDT 8:02 PM CDT
Civil Twilight 5:30 AM CDT 8:30 PM CDT
Nautical Twilight 4:56 AM CDT 9:04 PM CDT
Astronomical Twilight 4:19 AM CDT 9:41 PM CDT
Moon 9:55 PM CDT (7/25) 9:17 AM CDT (7/25)
Length of Visible Light 14h 59m
Length of Day
14h 03m
Waning Gibbous, 88% of the Moon is Illuminated
Jul 25
Waning Gibbous
Jul 29
Last Quarter
Aug 6
New
Aug 14
First Quarter
Aug 20
Full

Hourly Weather History & Observations

Time (CDT) Temp. Heat Index Dew Point Humidity Pressure Visibility Wind Dir Wind Speed Gust Speed Precip Events Conditions
12:10 AM 73.4 °F - 66.2 °F 78% 29.95 in 10.0 mi North 4.6 mph - N/A   Mostly Cloudy
12:30 AM 73.4 °F - 66.2 °F 78% 29.95 in 10.0 mi North 5.8 mph - N/A   Overcast
12:50 AM 73.4 °F - 66.2 °F 78% 29.95 in 10.0 mi North 5.8 mph - N/A   Overcast
1:10 AM 73.4 °F - 66.2 °F 78% 29.95 in 10.0 mi North 3.5 mph - N/A   Overcast
1:30 AM 71.6 °F - 66.2 °F 83% 29.95 in 10.0 mi North 3.5 mph - N/A   Overcast
1:50 AM 71.6 °F - 66.2 °F 83% 29.95 in 10.0 mi NNW 4.6 mph - N/A   Mostly Cloudy
2:10 AM 71.6 °F - 64.4 °F 78% 29.95 in 10.0 mi NNW 4.6 mph - N/A   Mostly Cloudy
2:30 AM 69.8 °F - 64.4 °F 83% 29.95 in 10.0 mi NNW 4.6 mph - N/A   Mostly Cloudy
2:50 AM 68.0 °F - 64.4 °F 88% 29.95 in 10.0 mi Calm Calm - N/A   Mostly Cloudy
3:10 AM 68.0 °F - 64.4 °F 88% 29.96 in 10.0 mi NNW 4.6 mph - N/A   Scattered Clouds
3:30 AM 68.0 °F - 64.4 °F 88% 29.96 in 10.0 mi NNW 3.5 mph - N/A   Mostly Cloudy
3:50 AM 68.0 °F - 64.4 °F 88% 29.96 in 10.0 mi NNW 4.6 mph - N/A   Scattered Clouds
4:10 AM 68.0 °F - 64.4 °F 88% 29.96 in 10.0 mi NNW 4.6 mph - N/A   Clear
4:30 AM 66.2 °F - 62.6 °F 88% 29.96 in 10.0 mi NW 4.6 mph - N/A   Clear
4:50 AM 66.2 °F - 62.6 °F 88% 29.96 in 10.0 mi NNW 4.6 mph - N/A   Clear
5:10 AM 66.2 °F - 62.6 °F 88% 29.98 in 10.0 mi North 4.6 mph - N/A   Clear
5:30 AM 66.2 °F - 62.6 °F 88% 29.98 in 10.0 mi North 4.6 mph - N/A   Clear
5:50 AM 64.4 °F - 62.6 °F 94% 29.99 in 10.0 mi NNW 3.5 mph - N/A   Clear
6:10 AM 64.4 °F - 62.6 °F 94% 29.99 in 10.0 mi NNW 3.5 mph - N/A   Clear
6:30 AM 64.4 °F - 62.6 °F 94% 30.00 in 10.0 mi NW 3.5 mph - N/A   Clear
6:50 AM 66.2 °F - 62.6 °F 88% 30.00 in 10.0 mi NW 3.5 mph - N/A   Clear
7:10 AM 66.2 °F - 62.6 °F 88% 30.01 in 10.0 mi North 3.5 mph - N/A   Clear
7:30 AM 68.0 °F - 62.6 °F 83% 30.01 in 10.0 mi NNW 4.6 mph - N/A   Clear
7:50 AM 68.0 °F - 62.6 °F 83% 30.02 in 10.0 mi North 3.5 mph - N/A   Clear
8:10 AM 69.8 °F - 62.6 °F 78% 30.02 in 10.0 mi North 3.5 mph - N/A   Clear
8:30 AM 71.6 °F - 62.6 °F 73% 30.02 in 10.0 mi North 3.5 mph - N/A   Clear
8:50 AM 71.6 °F - 62.6 °F 73% 30.02 in 10.0 mi North 4.6 mph - N/A   Clear
9:10 AM 73.4 °F - 62.6 °F 69% 30.02 in 10.0 mi North 4.6 mph - N/A   Clear
9:30 AM 75.2 °F - 64.4 °F 69% 30.03 in 10.0 mi Calm Calm - N/A   Clear
9:50 AM 75.2 °F - 62.6 °F 65% 30.03 in 10.0 mi NNW 5.8 mph - N/A   Clear
10:10 AM 77.0 °F - 64.4 °F 65% 30.04 in 10.0 mi North 5.8 mph - N/A   Clear
10:30 AM 77.0 °F - 62.6 °F 61% 30.04 in 10.0 mi North 5.8 mph - N/A   Clear
10:50 AM 77.0 °F - 62.6 °F 61% 30.04 in 10.0 mi NNE 8.1 mph - N/A   Partly Cloudy
11:10 AM 77.0 °F - 62.6 °F 61% 30.05 in 10.0 mi North 5.8 mph - N/A   Scattered Clouds
11:30 AM 78.8 °F - 62.6 °F 57% 30.05 in 10.0 mi NNW 4.6 mph - N/A   Mostly Cloudy
11:50 AM 78.8 °F - 62.6 °F 57% 30.06 in 10.0 mi NNW 8.1 mph - N/A   Mostly Cloudy
12:10 PM 80.6 °F 81.8 °F 62.6 °F 54% 30.06 in 10.0 mi NNW 6.9 mph - N/A   Partly Cloudy
12:30 PM 80.6 °F 81.8 °F 62.6 °F 54% 30.06 in 10.0 mi North 4.6 mph - N/A   Partly Cloudy
12:50 PM 80.6 °F 81.8 °F 62.6 °F 54% 30.06 in 10.0 mi NNW 5.8 mph - N/A   Scattered Clouds
1:10 PM 80.6 °F 81.8 °F 62.6 °F 54% 30.06 in 10.0 mi NW 6.9 mph - N/A   Partly Cloudy
1:30 PM 80.6 °F 81.1 °F 59.0 °F 48% 30.06 in 10.0 mi NNE 5.8 mph - N/A   Clear
1:50 PM 80.6 °F 81.5 °F 60.8 °F 51% 30.05 in 10.0 mi North 4.6 mph - N/A   Scattered Clouds
2:10 PM 80.6 °F 81.8 °F 62.6 °F 54% 30.05 in 10.0 mi NW 6.9 mph - N/A   Scattered Clouds
2:30 PM 82.4 °F 83.4 °F 62.6 °F 51% 30.04 in 10.0 mi North 5.8 mph - N/A   Partly Cloudy
2:50 PM 82.4 °F 83.4 °F 62.6 °F 51% 30.04 in 10.0 mi North 4.6 mph - N/A   Clear
3:10 PM 82.4 °F 82.9 °F 60.8 °F 48% 30.04 in 10.0 mi WNW 4.6 mph - N/A   Partly Cloudy
3:30 PM 82.4 °F 82.9 °F 60.8 °F 48% 30.04 in 10.0 mi North 8.1 mph - N/A   Clear
3:50 PM 82.4 °F 82.9 °F 60.8 °F 48% 30.03 in 10.0 mi NNW 4.6 mph - N/A   Clear
4:10 PM 82.4 °F 83.4 °F 62.6 °F 51% 30.03 in 10.0 mi North 6.9 mph - N/A   Clear
4:30 PM 82.4 °F 82.9 °F 60.8 °F 48% 30.04 in 10.0 mi NW 6.9 mph - N/A   Clear
4:50 PM 82.4 °F 83.4 °F 62.6 °F 51% 30.04 in 10.0 mi North 5.8 mph - N/A   Clear
5:10 PM 80.6 °F 81.8 °F 62.6 °F 54% 30.04 in 10.0 mi North 5.8 mph - N/A   Scattered Clouds
5:30 PM 80.6 °F 81.8 °F 62.6 °F 54% 30.04 in 10.0 mi North 5.8 mph - N/A   Scattered Clouds
5:50 PM 80.6 °F 81.8 °F 62.6 °F 54% 30.04 in 10.0 mi NNW 4.6 mph - N/A   Scattered Clouds
6:10 PM 78.8 °F - 64.4 °F 61% 30.04 in 10.0 mi NW 4.6 mph - N/A   Partly Cloudy
6:30 PM 77.0 °F - 64.4 °F 65% 30.04 in 10.0 mi NW 5.8 mph - N/A   Clear
6:50 PM 77.0 °F - 64.4 °F 65% 30.04 in 10.0 mi NW 5.8 mph - N/A   Clear
7:10 PM 75.2 °F - 64.4 °F 69% 30.04 in 10.0 mi WNW 4.6 mph - N/A   Clear
7:30 PM 75.2 °F - 64.4 °F 69% 30.04 in 8.0 mi NW 4.6 mph - N/A   Clear
7:50 PM 73.4 °F - 64.4 °F 73% 30.04 in 10.0 mi NNW 3.5 mph - N/A   Clear
8:10 PM 73.4 °F - 64.4 °F 73% 30.04 in 10.0 mi NW 3.5 mph - N/A   Clear
8:30 PM 71.6 °F - 66.2 °F 83% 30.03 in 10.0 mi NNE 3.5 mph - N/A   Clear
8:50 PM 71.6 °F - 66.2 °F 83% 30.03 in 10.0 mi North 3.5 mph - N/A   Clear
9:10 PM 71.6 °F - 66.2 °F 83% 30.04 in 10.0 mi Calm Calm - N/A   Clear
9:30 PM 71.6 °F - 64.4 °F 78% 30.05 in 10.0 mi NW 3.5 mph - N/A   Clear
9:50 PM 69.8 °F - 64.4 °F 83% 30.06 in 10.0 mi Calm Calm - N/A   Clear
10:10 PM 69.8 °F - 64.4 °F 83% 30.06 in 10.0 mi Calm Calm - N/A   Clear
10:30 PM 68.0 °F - 64.4 °F 88% 30.06 in 10.0 mi WNW 3.5 mph - N/A   Clear
10:50 PM 68.0 °F - 64.4 °F 88% 30.05 in 10.0 mi Calm Calm - N/A   Clear
11:10 PM 68.0 °F - 64.4 °F 88% 30.06 in 8.0 mi Calm Calm - N/A   Clear
11:30 PM 68.0 °F - 64.4 °F 88% 30.06 in 10.0 mi Calm Calm - N/A   Clear
11:50 PM 66.2 °F - 64.4 °F 94% 30.06 in 9.0 mi Calm Calm - N/A   Clear